FLIWT26 WIII-AYPY

Flight info

Callsign FLIWT26
Flight time N/A
Altitude 35000
Route CA T5 BIMAK W52 MKS A215 LEBON/N0446F370 A215 ASIXA H777 EPKED H778 SAKTO SAKTO1
Aircraft A320/M-SDE2E3FGHIRWY/LB1

Departure

Time 2026-04-30 05:22
Airport Soekarno-Hatta International Airport (WIII)

Arrival

Time N/A
Airport Port Moresby Jacksons International Airport (AYPY)
Time Latitude Longitude Altitude Speed Heading
2026-04-30 05:03 -6.11352 106.67013 38 ft 0 kts 68°
2026-04-30 05:13 -6.11358 106.66997 38 ft 4 kts 91°
2026-04-30 05:13 -6.11357 106.66973 38 ft 4 kts 68°
2026-04-30 05:13 -6.11370 106.66950 35 ft 4 kts 41°
2026-04-30 05:13 -6.11392 106.66940 36 ft 4 kts 356°
2026-04-30 05:14 -6.11404 106.66941 34 ft 0 kts 338°
2026-04-30 05:16 -6.11398 106.66939 34 ft 1 kts 338°
2026-04-30 05:17 -6.11394 106.66937 37 ft 0 kts 339°
2026-04-30 05:17 -6.11382 106.66933 35 ft 4 kts 341°
2026-04-30 05:17 -6.11345 106.66921 37 ft 7 kts 341°
2026-04-30 05:17 -6.11304 106.66906 38 ft 5 kts 340°
2026-04-30 05:18 -6.11276 106.66894 38 ft 3 kts 338°
2026-04-30 05:18 -6.11259 106.66887 38 ft 3 kts 337°
2026-04-30 05:18 -6.11194 106.66859 35 ft 14 kts 336°
2026-04-30 05:18 -6.11115 106.66859 38 ft 11 kts 37°
2026-04-30 05:19 -6.11085 106.66918 38 ft 8 kts 68°
2026-04-30 05:19 -6.11061 106.66964 38 ft 6 kts 49°
2026-04-30 05:19 -6.11028 106.66980 38 ft 4 kts
2026-04-30 05:19 -6.11007 106.66977 38 ft 2 kts 347°
2026-04-30 05:20 -6.10989 106.66971 39 ft 4 kts 337°
2026-04-30 05:20 -6.10946 106.66927 38 ft 10 kts 297°
2026-04-30 05:20 -6.10933 106.66860 38 ft 9 kts 276°
2026-04-30 05:20 -6.10938 106.66805 35 ft 7 kts 260°
2026-04-30 05:21 -6.10951 106.66765 38 ft 5 kts 248°
2026-04-30 05:21 -6.10960 106.66743 38 ft 2 kts 248°
2026-04-30 05:21 -6.10963 106.66736 38 ft 1 kts 248°
2026-04-30 05:21 -6.11020 106.66594 39 ft 56 kts 248°
2026-04-30 05:22 -6.11247 106.66026 40 ft 117 kts 248°
2026-04-30 05:22 -6.11608 106.65119 42 ft 165 kts 248°
2026-04-30 05:22 -6.12068 106.63962 364 ft 179 kts 243°
2026-04-30 05:22 -6.12534 106.62785 843 ft 189 kts 248°
2026-04-30 05:23 -6.13005 106.61490 1058 ft 207 kts 259°
2026-04-30 05:23 -6.12898 106.60012 1199 ft 225 kts 288°
2026-04-30 05:23 -6.12322 106.58464 1410 ft 247 kts 295°
2026-04-30 05:23 -6.11587 106.56836 1785 ft 263 kts 296°
2026-04-30 05:24 -6.10814 106.55154 2412 ft 269 kts 296°
2026-04-30 05:24 -6.10042 106.53421 3138 ft 273 kts 294°
2026-04-30 05:24 -6.09224 106.51684 3828 ft 276 kts 305°
2026-04-30 05:24 -6.07862 106.50344 4482 ft 276 kts 332°
2026-04-30 05:25 -6.06052 106.49766 5134 ft 275 kts 359°
2026-04-30 05:25 -6.04189 106.50069 5813 ft 273 kts 24°
2026-04-30 05:25 -6.02541 106.51016 6430 ft 275 kts 41°
2026-04-30 05:25 -6.01265 106.52441 7059 ft 276 kts 59°
2026-04-30 05:26 -6.00493 106.54205 7673 ft 279 kts 76°
2026-04-30 05:26 -6.00168 106.56146 7938 ft 283 kts 82°
2026-04-30 05:26 -5.99900 106.58097 7999 ft 281 kts 82°
2026-04-30 05:26 -5.99637 106.60038 8004 ft 280 kts 82°
2026-04-30 05:27 -5.99372 106.61977 8006 ft 281 kts 82°
2026-04-30 05:27 -5.99102 106.63923 8004 ft 281 kts 81°
2026-04-30 05:27 -5.98834 106.65848 8005 ft 280 kts 81°
2026-04-30 05:27 -5.98562 106.67801 8005 ft 281 kts 82°
2026-04-30 05:28 -5.98292 106.69740 8004 ft 281 kts 82°
2026-04-30 05:28 -5.98024 106.71682 8008 ft 281 kts 82°
2026-04-30 05:28 -5.97754 106.73630 8006 ft 281 kts 82°
2026-04-30 05:28 -5.97480 106.75579 8008 ft 282 kts 82°
2026-04-30 05:29 -5.97207 106.77503 8005 ft 281 kts 82°
2026-04-30 05:29 -5.96933 106.79440 8007 ft 281 kts 82°
2026-04-30 05:29 -5.96659 106.81387 8008 ft 282 kts 82°
2026-04-30 05:29 -5.96562 106.83350 8007 ft 282 kts 95°
2026-04-30 05:30 -5.96998 106.85252 8184 ft 285 kts 111°
2026-04-30 05:30 -5.97792 106.87101 8847 ft 287 kts 112°
2026-04-30 05:30 -5.98580 106.88953 9472 ft 290 kts 112°
2026-04-30 05:30 -5.99374 106.90828 9896 ft 294 kts 112°
2026-04-30 05:31 -6.00176 106.92722 9996 ft 301 kts 112°
2026-04-30 05:31 -6.01027 106.94728 10008 ft 318 kts 112°
2026-04-30 05:31 -6.01913 106.96820 10002 ft 327 kts 112°
2026-04-30 05:31 -6.02816 106.98947 10005 ft 332 kts 112°
2026-04-30 05:32 -6.03733 107.01112 10003 ft 334 kts 112°
2026-04-30 05:32 -6.04646 107.03265 10000 ft 331 kts 112°
2026-04-30 05:32 -6.05549 107.05393 10003 ft 330 kts 112°
2026-04-30 05:32 -6.06457 107.07533 10004 ft 331 kts 112°
2026-04-30 05:33 -6.07360 107.09667 10003 ft 332 kts 112°
2026-04-30 05:33 -6.08270 107.11812 10007 ft 334 kts 112°
2026-04-30 05:33 -6.09181 107.13953 10006 ft 333 kts 112°
2026-04-30 05:33 -6.10093 107.16088 10013 ft 335 kts 112°
2026-04-30 05:34 -6.11008 107.18226 10018 ft 335 kts 112°
2026-04-30 05:34 -6.11917 107.20360 10018 ft 335 kts 112°
2026-04-30 05:34 -6.12823 107.22495 10018 ft 334 kts 112°
2026-04-30 05:34 -6.13726 107.24628 10009 ft 333 kts 112°
2026-04-30 05:35 -6.14647 107.26801 10238 ft 340 kts 112°
2026-04-30 05:35 -6.15563 107.28964 10814 ft 343 kts 112°
2026-04-30 05:35 -6.16500 107.31179 11362 ft 346 kts 112°
2026-04-30 05:35 -6.17443 107.33405 11916 ft 349 kts 112°
2026-04-30 05:36 -6.18419 107.35711 12461 ft 353 kts 113°
2026-04-30 05:36 -6.19368 107.37952 13007 ft 355 kts 112°
2026-04-30 05:36 -6.20334 107.40241 13578 ft 357 kts 113°
2026-04-30 05:36 -6.21306 107.42551 14061 ft 360 kts 113°
2026-04-30 05:37 -6.22285 107.44873 14534 ft 362 kts 112°
2026-04-30 05:37 -6.23271 107.47215 14980 ft 365 kts 112°
2026-04-30 05:37 -6.24265 107.49570 15457 ft 367 kts 112°
2026-04-30 05:37 -6.25264 107.51930 15929 ft 369 kts 112°
2026-04-30 05:38 -6.26277 107.54317 16359 ft 373 kts 112°
2026-04-30 05:38 -6.27299 107.56726 16785 ft 376 kts 112°
2026-04-30 05:38 -6.28326 107.59150 17207 ft 379 kts 112°
2026-04-30 05:38 -6.29360 107.61595 17649 ft 381 kts 112°
2026-04-30 05:39 -6.30398 107.64052 18093 ft 383 kts 112°
2026-04-30 05:39 -6.31443 107.66526 18466 ft 386 kts 112°
2026-04-30 05:39 -6.32496 107.69019 18824 ft 389 kts 112°
2026-04-30 05:39 -6.33555 107.71528 19194 ft 391 kts 112°
2026-04-30 05:40 -6.34620 107.74054 19573 ft 393 kts 112°
2026-04-30 05:40 -6.35689 107.76589 19953 ft 396 kts 112°
2026-04-30 05:40 -6.36767 107.79144 20326 ft 398 kts 112°
2026-04-30 05:40 -6.37851 107.81713 20701 ft 400 kts 112°
2026-04-30 05:41 -6.38942 107.84296 21069 ft 402 kts 112°
2026-04-30 05:41 -6.40039 107.86892 21432 ft 405 kts 112°
2026-04-30 05:41 -6.41140 107.89500 21793 ft 407 kts 112°
2026-04-30 05:41 -6.42249 107.92130 22146 ft 409 kts 112°
2026-04-30 05:42 -6.43358 107.94763 22480 ft 411 kts 112°
2026-04-30 05:42 -6.44477 107.97418 22810 ft 413 kts 112°
2026-04-30 05:42 -6.45602 108.00089 23137 ft 415 kts 112°
2026-04-30 05:42 -6.46732 108.02761 23445 ft 417 kts 112°
2026-04-30 05:43 -6.47886 108.05450 23706 ft 419 kts 112°
2026-04-30 05:43 -6.49052 108.08138 23965 ft 421 kts 112°
2026-04-30 05:43 -6.50231 108.10840 24216 ft 423 kts 113°
2026-04-30 05:43 -6.51419 108.13554 24486 ft 424 kts 112°
2026-04-30 05:44 -6.52603 108.16269 24733 ft 426 kts 112°
2026-04-30 05:44 -6.53792 108.18999 24977 ft 428 kts 112°
2026-04-30 05:44 -6.54990 108.21751 25221 ft 429 kts 112°
2026-04-30 05:44 -6.56168 108.24469 25455 ft 431 kts 112°
2026-04-30 05:45 -6.57365 108.27239 25684 ft 432 kts 112°
2026-04-30 05:45 -6.58565 108.30017 25918 ft 434 kts 112°
2026-04-30 05:45 -6.59767 108.32799 26140 ft 435 kts 112°
2026-04-30 05:45 -6.60979 108.35596 26357 ft 437 kts 112°
2026-04-30 05:46 -6.62188 108.38381 26572 ft 438 kts 112°
2026-04-30 05:46 -6.63421 108.41219 26788 ft 440 kts 112°
2026-04-30 05:46 -6.64646 108.44042 26996 ft 441 kts 112°
2026-04-30 05:46 -6.65874 108.46882 27206 ft 443 kts 112°
2026-04-30 05:47 -6.67099 108.49724 27418 ft 444 kts 112°
2026-04-30 05:47 -6.67913 108.51618 27559 ft 445 kts 111°
2026-04-30 05:47 -6.69064 108.55610 27820 ft 445 kts 98°
2026-04-30 05:47 -6.69287 108.57659 27938 ft 445 kts 91°
2026-04-30 05:48 -6.69182 108.60750 28118 ft 446 kts 82°
2026-04-30 05:48 -6.68766 108.63865 28302 ft 448 kts 82°
2026-04-30 05:48 -6.68355 108.66974 28488 ft 449 kts 82°
2026-04-30 05:48 -6.67809 108.71147 28727 ft 451 kts 82°
2026-04-30 05:49 -6.67540 108.73217 28837 ft 452 kts 82°
2026-04-30 05:49 -6.67134 108.76345 29011 ft 453 kts 82°
2026-04-30 05:49 -6.66722 108.79496 29177 ft 454 kts 82°
2026-04-30 05:49 -6.66307 108.82652 29350 ft 456 kts 82°
2026-04-30 05:50 -6.65892 108.85808 29499 ft 457 kts 82°
2026-04-30 05:50 -6.65477 108.88983 29656 ft 458 kts 82°
2026-04-30 05:50 -6.65058 108.92163 29809 ft 459 kts 82°
2026-04-30 05:50 -6.64638 108.95346 29986 ft 459 kts 82°
2026-04-30 05:51 -6.64219 108.98532 30186 ft 458 kts 82°
2026-04-30 05:51 -6.63802 109.01708 30379 ft 458 kts 82°
2026-04-30 05:51 -6.63383 109.04883 30561 ft 457 kts 82°
2026-04-30 05:51 -6.62963 109.08044 30749 ft 457 kts 82°
2026-04-30 05:52 -6.62545 109.11211 30934 ft 456 kts 82°
2026-04-30 05:52 -6.62128 109.14379 31131 ft 456 kts 82°
2026-04-30 05:52 -6.61713 109.17525 31328 ft 455 kts 82°
2026-04-30 05:52 -6.61297 109.20683 31525 ft 454 kts 82°
2026-04-30 05:53 -6.60883 109.23830 31727 ft 453 kts 82°
2026-04-30 05:53 -6.60470 109.26961 31921 ft 453 kts 82°
2026-04-30 05:53 -6.60054 109.30098 32118 ft 452 kts 82°
2026-04-30 05:53 -6.59636 109.33238 32346 ft 451 kts 82°
2026-04-30 05:54 -6.59225 109.36325 32545 ft 451 kts 82°
2026-04-30 05:54 -6.58810 109.39447 32738 ft 450 kts 82°
2026-04-30 05:54 -6.58395 109.42566 32939 ft 449 kts 82°
2026-04-30 05:54 -6.57984 109.45670 33134 ft 449 kts 82°
2026-04-30 05:55 -6.57570 109.48782 33306 ft 449 kts 82°
2026-04-30 05:55 -6.57155 109.51888 33471 ft 449 kts 81°
2026-04-30 05:55 -6.56733 109.55048 33655 ft 449 kts 81°
2026-04-30 05:55 -6.56325 109.58115 33834 ft 448 kts 81°
2026-04-30 05:56 -6.55912 109.61217 33994 ft 448 kts 81°
2026-04-30 05:56 -6.55499 109.64323 34143 ft 447 kts 82°
2026-04-30 05:56 -6.55092 109.67418 34287 ft 447 kts 82°
2026-04-30 05:56 -6.54682 109.70517 34432 ft 447 kts 82°
2026-04-30 05:57 -6.54271 109.73609 34570 ft 446 kts 81°
2026-04-30 05:57 -6.53858 109.76700 34705 ft 446 kts 81°
2026-04-30 05:57 -6.53446 109.79784 34840 ft 445 kts 81°
2026-04-30 05:57 -6.53032 109.82866 34872 ft 444 kts 81°
2026-04-30 05:58 -6.52207 109.89013 34879 ft 443 kts 82°
2026-04-30 05:58 -6.51398 109.95158 34877 ft 443 kts 82°
2026-04-30 05:59 -6.50582 110.01299 34877 ft 443 kts 81°
2026-04-30 05:59 -6.49759 110.07440 34879 ft 443 kts 81°
2026-04-30 06:00 -6.48935 110.13587 34885 ft 443 kts 81°
2026-04-30 06:00 -6.48113 110.19728 34877 ft 444 kts 82°
2026-04-30 06:01 -6.47287 110.25878 34873 ft 444 kts 82°
2026-04-30 06:01 -6.46463 110.31987 34877 ft 444 kts 82°
2026-04-30 06:02 -6.45641 110.38137 34872 ft 444 kts 82°
2026-04-30 06:02 -6.44821 110.44291 34871 ft 444 kts 82°
2026-04-30 06:03 -6.44009 110.50445 34869 ft 444 kts 82°
2026-04-30 06:03 -6.43194 110.56608 34868 ft 445 kts 82°
2026-04-30 06:04 -6.42378 110.62775 34866 ft 445 kts 82°
2026-04-30 06:05 -6.41151 110.72037 34869 ft 446 kts 82°
2026-04-30 06:05 -6.40329 110.78211 34874 ft 446 kts 82°
2026-04-30 06:06 -6.39513 110.84389 34880 ft 446 kts 82°
2026-04-30 06:06 -6.38688 110.90567 34876 ft 446 kts 82°
2026-04-30 06:07 -6.37862 110.96745 34874 ft 447 kts 82°
2026-04-30 06:07 -6.37037 111.02944 34874 ft 447 kts 82°
2026-04-30 06:08 -6.36213 111.09139 34876 ft 447 kts 82°
2026-04-30 06:08 -6.35385 111.15338 34880 ft 448 kts 82°
2026-04-30 06:09 -6.34567 111.21553 34879 ft 448 kts 82°
2026-04-30 06:09 -6.33756 111.27720 34876 ft 448 kts 82°
2026-04-30 06:10 -6.32928 111.33975 34878 ft 448 kts 82°
2026-04-30 06:10 -6.32104 111.40179 34879 ft 448 kts 82°
2026-04-30 06:11 -6.31282 111.46384 34882 ft 448 kts 82°
2026-04-30 06:11 -6.30456 111.52595 34878 ft 448 kts 82°
2026-04-30 06:12 -6.29635 111.58763 34875 ft 448 kts 82°
2026-04-30 06:12 -6.28811 111.64974 34884 ft 448 kts 82°
2026-04-30 06:13 -6.27991 111.71178 34879 ft 448 kts 82°
2026-04-30 06:13 -6.27162 111.77387 34881 ft 448 kts 82°
2026-04-30 06:14 -6.26329 111.83591 34894 ft 448 kts 82°
2026-04-30 06:14 -6.25489 111.89804 34889 ft 448 kts 82°
2026-04-30 06:15 -6.24641 111.96003 34890 ft 448 kts 82°
2026-04-30 06:15 -6.23800 112.02194 34894 ft 447 kts 82°
2026-04-30 06:16 -6.22957 112.08370 34889 ft 446 kts 82°
2026-04-30 06:16 -6.22111 112.14553 34891 ft 446 kts 82°
2026-04-30 06:17 -6.21274 112.20737 34881 ft 447 kts 82°
2026-04-30 06:17 -6.20430 112.26934 34879 ft 448 kts 82°
2026-04-30 06:18 -6.19584 112.33134 34880 ft 448 kts 82°
2026-04-30 06:18 -6.18734 112.39335 34884 ft 448 kts 82°
2026-04-30 06:19 -6.17881 112.45549 34886 ft 448 kts 82°
2026-04-30 06:19 -6.17038 112.51708 34885 ft 448 kts 82°
2026-04-30 06:20 -6.16182 112.57913 34878 ft 448 kts 82°
2026-04-30 06:20 -6.15320 112.64164 34876 ft 448 kts 82°
2026-04-30 06:21 -6.14463 112.70372 34875 ft 449 kts 82°
2026-04-30 06:21 -6.13616 112.76522 34879 ft 449 kts 82°
2026-04-30 06:22 -6.12759 112.82741 34888 ft 448 kts 82°
2026-04-30 06:22 -6.11904 112.88952 34893 ft 448 kts 82°
2026-04-30 06:23 -6.11055 112.95133 34892 ft 447 kts 82°
2026-04-30 06:23 -6.10198 113.01330 34891 ft 447 kts 82°
2026-04-30 06:24 -6.09336 113.07510 34888 ft 447 kts 82°
2026-04-30 06:24 -6.08482 113.13691 34895 ft 446 kts 82°
2026-04-30 06:25 -6.07626 113.19869 34891 ft 446 kts 82°
2026-04-30 06:25 -6.06766 113.26025 34889 ft 445 kts 82°
2026-04-30 06:26 -6.05913 113.32194 34887 ft 445 kts 82°
2026-04-30 06:26 -6.05057 113.38360 34886 ft 445 kts 82°
2026-04-30 06:27 -6.04204 113.44484 34881 ft 446 kts 82°
2026-04-30 06:27 -6.03345 113.50697 34875 ft 447 kts 82°
2026-04-30 06:28 -6.02491 113.56838 34880 ft 447 kts 82°
2026-04-30 06:28 -6.01622 113.63026 34880 ft 447 kts 82°
2026-04-30 06:29 -6.00759 113.69206 34878 ft 447 kts 82°
2026-04-30 06:29 -5.99899 113.75391 34881 ft 447 kts 82°
2026-04-30 06:30 -5.99042 113.81567 34871 ft 447 kts 82°
2026-04-30 06:30 -5.98182 113.87757 34875 ft 448 kts 82°
2026-04-30 06:31 -5.97309 113.93947 34881 ft 448 kts 82°
2026-04-30 06:31 -5.96433 114.00150 34882 ft 448 kts 82°
2026-04-30 06:32 -5.95562 114.06346 34880 ft 448 kts 82°
2026-04-30 06:32 -5.94697 114.12550 34881 ft 449 kts 82°
2026-04-30 06:33 -5.93830 114.18757 34883 ft 449 kts 82°
2026-04-30 06:33 -5.92954 114.24964 34883 ft 449 kts 82°
2026-04-30 06:34 -5.92079 114.31177 34884 ft 449 kts 82°
2026-04-30 06:34 -5.91204 114.37389 34885 ft 449 kts 82°
2026-04-30 06:35 -5.90327 114.43601 34886 ft 449 kts 82°
2026-04-30 06:35 -5.89449 114.49814 34887 ft 449 kts 82°
2026-04-30 06:36 -5.88583 114.55986 34885 ft 449 kts 82°
2026-04-30 06:36 -5.87710 114.62202 34888 ft 449 kts 81°
2026-04-30 06:37 -5.86829 114.68407 34888 ft 449 kts 81°
2026-04-30 06:37 -5.85955 114.74598 34883 ft 448 kts 81°
2026-04-30 06:38 -5.85222 114.79797 34886 ft 448 kts 81°
2026-04-30 06:38 -5.84336 114.85992 34884 ft 448 kts 81°
2026-04-30 06:39 -5.83460 114.92141 34882 ft 448 kts 81°
2026-04-30 06:39 -5.82580 114.98371 34880 ft 448 kts 81°
2026-04-30 06:40 -5.81705 115.04564 34870 ft 448 kts 81°
2026-04-30 06:40 -5.80835 115.10710 34869 ft 448 kts 81°
2026-04-30 06:41 -5.79947 115.16896 34869 ft 448 kts 81°
2026-04-30 06:41 -5.79065 115.23089 34868 ft 448 kts 81°
2026-04-30 06:42 -5.78185 115.29284 34865 ft 448 kts 81°
2026-04-30 06:42 -5.77304 115.35469 34858 ft 448 kts 81°
2026-04-30 06:43 -5.76415 115.41656 34855 ft 448 kts 81°
2026-04-30 06:43 -5.75535 115.47853 34855 ft 448 kts 81°
2026-04-30 06:44 -5.74652 115.54039 34860 ft 448 kts 81°
2026-04-30 06:44 -5.73762 115.60244 34860 ft 448 kts 81°
2026-04-30 06:45 -5.73077 115.66462 34853 ft 449 kts 85°
2026-04-30 06:45 -5.72754 115.72724 34850 ft 450 kts 87°
2026-04-30 06:46 -5.72511 115.79006 34849 ft 450 kts 87°
2026-04-30 06:46 -5.72241 115.85280 34851 ft 450 kts 86°
2026-04-30 06:47 -5.71938 115.91563 34854 ft 451 kts 86°
2026-04-30 06:47 -5.71627 115.97843 34853 ft 451 kts 86°
2026-04-30 06:48 -5.71321 116.04137 34851 ft 452 kts 86°
2026-04-30 06:48 -5.71020 116.10441 34851 ft 452 kts 86°
2026-04-30 06:49 -5.70721 116.16720 34854 ft 453 kts 86°
2026-04-30 06:49 -5.70411 116.23029 34857 ft 453 kts 86°
2026-04-30 06:50 -5.70101 116.29341 34857 ft 453 kts 86°
2026-04-30 06:50 -5.69806 116.35666 34855 ft 453 kts 86°
2026-04-30 06:51 -5.69505 116.41993 34858 ft 454 kts 86°
2026-04-30 06:51 -5.69187 116.48317 34860 ft 454 kts 86°
2026-04-30 06:52 -5.68878 116.54659 34857 ft 454 kts 86°
2026-04-30 06:52 -5.68570 116.60995 34856 ft 454 kts 86°
2026-04-30 06:53 -5.68265 116.67321 34859 ft 454 kts 86°
2026-04-30 06:53 -5.67957 116.73660 34860 ft 454 kts 86°
2026-04-30 06:54 -5.67642 116.79993 34859 ft 454 kts 86°
2026-04-30 06:54 -5.67323 116.86333 34862 ft 455 kts 86°
2026-04-30 06:55 -5.67014 116.92664 34865 ft 454 kts 86°
2026-04-30 06:55 -5.66697 116.98977 34864 ft 454 kts 86°
2026-04-30 06:56 -5.66381 117.05310 34860 ft 454 kts 86°
2026-04-30 06:56 -5.66069 117.11639 34859 ft 454 kts 86°
2026-04-30 06:57 -5.65761 117.17973 34860 ft 454 kts 86°
2026-04-30 06:57 -5.65442 117.24295 34861 ft 454 kts 86°
2026-04-30 06:58 -5.65123 117.30627 34863 ft 454 kts 86°
2026-04-30 06:58 -5.64811 117.36944 34863 ft 454 kts 86°
2026-04-30 06:59 -5.64495 117.43272 34865 ft 454 kts 86°
2026-04-30 06:59 -5.64175 117.49604 34857 ft 454 kts 86°
2026-04-30 07:00 -5.63861 117.55927 34855 ft 454 kts 86°
2026-04-30 07:00 -5.63538 117.62255 34855 ft 454 kts 86°
2026-04-30 07:01 -5.63207 117.68576 34854 ft 454 kts 86°
2026-04-30 07:01 -5.62884 117.74901 34854 ft 454 kts 86°
2026-04-30 07:02 -5.62571 117.81189 34854 ft 454 kts 86°
2026-04-30 07:02 -5.62250 117.87512 34853 ft 454 kts 86°
2026-04-30 07:03 -5.61928 117.93834 34852 ft 453 kts 86°
2026-04-30 07:03 -5.61601 118.00150 34851 ft 453 kts 86°
2026-04-30 07:04 -5.61285 118.06479 34857 ft 454 kts 86°
2026-04-30 07:04 -5.60956 118.12807 34851 ft 454 kts 86°
2026-04-30 07:05 -5.60467 118.22277 34850 ft 454 kts 86°
2026-04-30 07:05 -5.60129 118.28608 34850 ft 453 kts 85°
2026-04-30 07:06 -5.59798 118.34934 34849 ft 453 kts 86°
2026-04-30 07:06 -5.59485 118.41242 34854 ft 453 kts 86°
2026-04-30 07:07 -5.59164 118.47560 34858 ft 452 kts 86°
2026-04-30 07:07 -5.58831 118.53869 34857 ft 452 kts 86°
2026-04-30 07:08 -5.58505 118.60162 34851 ft 452 kts 86°
2026-04-30 07:08 -5.58173 118.66460 34849 ft 451 kts 86°
2026-04-30 07:09 -5.57844 118.72750 34849 ft 451 kts 86°
2026-04-30 07:09 -5.57516 118.79039 34849 ft 451 kts 86°
2026-04-30 07:10 -5.57186 118.85325 34851 ft 451 kts 86°
2026-04-30 07:10 -5.56855 118.91582 34852 ft 451 kts 86°
2026-04-30 07:11 -5.56521 118.97874 34860 ft 451 kts 85°
2026-04-30 07:11 -5.56189 119.04148 34862 ft 450 kts 86°
2026-04-30 07:12 -5.55859 119.10423 34861 ft 449 kts 85°
2026-04-30 07:12 -5.55522 119.16675 34856 ft 449 kts 86°
2026-04-30 07:13 -5.55183 119.22988 34856 ft 449 kts 86°
2026-04-30 07:13 -5.54854 119.29243 34853 ft 449 kts 86°
2026-04-30 07:14 -5.54522 119.35490 34852 ft 448 kts 85°
2026-04-30 07:14 -5.54182 119.41726 34856 ft 447 kts 86°
2026-04-30 07:15 -5.53830 119.47999 34852 ft 447 kts 85°
2026-04-30 07:15 -5.53495 119.54228 34856 ft 447 kts 86°
2026-04-30 07:16 -5.53164 119.60488 34868 ft 447 kts 86°
2026-04-30 07:16 -5.52885 119.65720 34869 ft 447 kts 86°
2026-04-30 07:17 -5.52492 119.73002 34878 ft 447 kts 86°
2026-04-30 07:18 -5.52030 119.81322 34874 ft 446 kts 86°
2026-04-30 07:18 -5.51690 119.87538 34880 ft 445 kts 86°
2026-04-30 07:19 -5.51353 119.93786 34881 ft 445 kts 85°
2026-04-30 07:19 -5.51010 120.00025 34877 ft 444 kts 85°
2026-04-30 07:20 -5.50672 120.06213 34870 ft 444 kts 86°
2026-04-30 07:20 -5.50337 120.12441 34868 ft 444 kts 86°
2026-04-30 07:21 -5.49998 120.18656 34862 ft 444 kts 86°
2026-04-30 07:21 -5.49657 120.24847 34860 ft 444 kts 86°
2026-04-30 07:22 -5.49150 120.34199 34848 ft 443 kts 86°
2026-04-30 07:22 -5.48811 120.40413 34845 ft 443 kts 86°
2026-04-30 07:23 -5.48466 120.46599 34840 ft 444 kts 86°
2026-04-30 07:23 -5.48116 120.52872 34838 ft 444 kts 86°
2026-04-30 07:24 -5.47772 120.59066 34838 ft 444 kts 86°
2026-04-30 07:24 -5.47422 120.65290 34838 ft 444 kts 86°
2026-04-30 07:25 -5.47071 120.71570 34837 ft 444 kts 86°
2026-04-30 07:25 -5.46726 120.77756 34840 ft 444 kts 86°
2026-04-30 07:26 -5.46380 120.83991 34841 ft 444 kts 86°
2026-04-30 07:26 -5.46029 120.90190 34842 ft 445 kts 86°
2026-04-30 07:27 -5.45676 120.96377 34843 ft 445 kts 86°
2026-04-30 07:27 -5.45325 121.02617 34846 ft 445 kts 86°
2026-04-30 07:28 -5.44975 121.08859 34844 ft 444 kts 86°
2026-04-30 07:28 -5.44622 121.15083 34844 ft 445 kts 86°
2026-04-30 07:29 -5.44326 121.20286 34846 ft 445 kts 86°
2026-04-30 07:29 -5.43973 121.26510 34846 ft 445 kts 86°
2026-04-30 07:30 -5.43443 121.35849 34852 ft 444 kts 86°
2026-04-30 07:31 -5.43095 121.42048 34851 ft 444 kts 86°
2026-04-30 07:31 -5.42746 121.48233 34851 ft 444 kts 86°
2026-04-30 07:32 -5.42385 121.54425 34851 ft 445 kts 86°
2026-04-30 07:32 -5.42017 121.60655 34851 ft 445 kts 86°
2026-04-30 07:33 -5.41654 121.66864 34849 ft 445 kts 86°
2026-04-30 07:33 -5.41299 121.73107 34855 ft 445 kts 86°
2026-04-30 07:34 -5.40943 121.79346 34856 ft 445 kts 86°
2026-04-30 07:34 -5.40582 121.85591 34858 ft 445 kts 85°
2026-04-30 07:35 -5.40219 121.91787 34856 ft 445 kts 86°
2026-04-30 07:35 -5.39863 121.98020 34857 ft 445 kts 86°
2026-04-30 07:36 -5.39506 122.04228 34859 ft 446 kts 86°
2026-04-30 07:36 -5.39147 122.10446 34863 ft 446 kts 85°
2026-04-30 07:37 -5.38783 122.16692 34865 ft 446 kts 85°
2026-04-30 07:37 -5.38419 122.22948 34861 ft 446 kts 85°
2026-04-30 07:38 -5.38054 122.29197 34861 ft 446 kts 85°
2026-04-30 07:38 -5.37695 122.35407 34861 ft 446 kts 85°
2026-04-30 07:39 -5.37331 122.41649 34865 ft 446 kts 85°
2026-04-30 07:39 -5.36965 122.47861 34868 ft 445 kts 85°
2026-04-30 07:40 -5.36594 122.54098 34873 ft 445 kts 85°
2026-04-30 07:40 -5.36226 122.60350 34870 ft 445 kts 85°
2026-04-30 07:41 -5.35863 122.66549 34882 ft 445 kts 85°
2026-04-30 07:41 -5.35501 122.72786 34886 ft 444 kts 85°
2026-04-30 07:42 -5.35131 122.78964 34878 ft 444 kts 85°
2026-04-30 07:42 -5.34767 122.85182 34887 ft 443 kts 85°
2026-04-30 07:43 -5.34394 122.91347 34885 ft 443 kts 85°
2026-04-30 07:43 -5.34078 122.96520 34875 ft 443 kts 85°
2026-04-30 07:44 -5.33706 123.02715 34867 ft 443 kts 85°
2026-04-30 07:44 -5.33340 123.08928 34861 ft 442 kts 85°
2026-04-30 07:45 -5.32973 123.15090 34857 ft 442 kts 85°
2026-04-30 07:45 -5.32601 123.21289 34860 ft 442 kts 85°
2026-04-30 07:46 -5.32223 123.27493 34857 ft 442 kts 85°
2026-04-30 07:46 -5.31849 123.33643 34860 ft 442 kts 85°
2026-04-30 07:47 -5.31478 123.39848 34862 ft 442 kts 85°
2026-04-30 07:47 -5.31104 123.46034 34862 ft 442 kts 85°
2026-04-30 07:48 -5.30728 123.52235 34861 ft 442 kts 85°
2026-04-30 07:48 -5.30353 123.58396 34861 ft 442 kts 85°
2026-04-30 07:49 -5.29978 123.64601 34864 ft 442 kts 85°
2026-04-30 07:49 -5.29608 123.70754 34867 ft 442 kts 85°
2026-04-30 07:50 -5.29236 123.76902 34872 ft 442 kts 85°
2026-04-30 07:50 -5.28854 123.83108 34873 ft 442 kts 85°
2026-04-30 07:51 -5.28477 123.89255 34873 ft 442 kts 85°
2026-04-30 07:51 -5.28098 123.95505 34873 ft 442 kts 85°
2026-04-30 07:52 -5.27723 124.01643 34876 ft 441 kts 86°
2026-04-30 07:52 -5.27345 124.07825 34877 ft 441 kts 85°
2026-04-30 07:53 -5.26967 124.13996 34874 ft 441 kts 85°
2026-04-30 07:53 -5.26585 124.20168 34876 ft 441 kts 85°
2026-04-30 07:54 -5.26735 124.26359 34881 ft 441 kts 92°
2026-04-30 07:54 -5.27062 124.32541 34883 ft 440 kts 92°
2026-04-30 07:55 -5.27331 124.37675 34873 ft 440 kts 92°
2026-04-30 07:55 -5.27652 124.43787 34878 ft 440 kts 92°
2026-04-30 07:56 -5.27967 124.49977 34874 ft 440 kts 92°
2026-04-30 07:56 -5.28283 124.56104 34875 ft 439 kts 92°
2026-04-30 07:57 -5.28601 124.62260 34874 ft 439 kts 92°
2026-04-30 07:57 -5.28916 124.68375 34872 ft 439 kts 92°
2026-04-30 07:58 -5.29231 124.74531 34867 ft 439 kts 92°
2026-04-30 07:58 -5.29550 124.80702 34855 ft 440 kts 92°
2026-04-30 07:59 -5.29867 124.86886 34849 ft 441 kts 92°
2026-04-30 07:59 -5.30179 124.93042 34850 ft 442 kts 92°
2026-04-30 08:00 -5.30652 125.02376 34861 ft 443 kts 92°
2026-04-30 08:00 -5.30973 125.08545 34870 ft 442 kts 92°
2026-04-30 08:01 -5.31289 125.14743 34872 ft 442 kts 91°
2026-04-30 08:01 -5.31602 125.20951 34872 ft 442 kts 92°
2026-04-30 08:02 -5.32075 125.30282 34882 ft 441 kts 91°
2026-04-30 08:03 -5.32696 125.42659 34889 ft 440 kts 92°
2026-04-30 08:04 -5.33009 125.48794 34890 ft 440 kts 91°
2026-04-30 08:04 -5.33313 125.54971 34885 ft 440 kts 91°
2026-04-30 08:05 -5.33629 125.61156 34879 ft 441 kts 92°
2026-04-30 08:05 -5.33939 125.67338 34872 ft 441 kts 91°
2026-04-30 08:06 -5.34245 125.73524 34876 ft 441 kts 92°
2026-04-30 08:06 -5.34505 125.78679 34878 ft 442 kts 91°
2026-04-30 08:07 -5.34821 125.84876 34870 ft 442 kts 91°
2026-04-30 08:07 -5.35121 125.91092 34980 ft 445 kts 92°
2026-04-30 08:07 -5.35273 125.94189 35106 ft 446 kts 91°
2026-04-30 08:08 -5.35429 125.97355 35253 ft 447 kts 91°
2026-04-30 08:08 -5.35582 126.00469 35387 ft 447 kts 91°
2026-04-30 08:08 -5.35734 126.03627 35570 ft 446 kts 92°
2026-04-30 08:08 -5.35884 126.06737 35728 ft 447 kts 92°
2026-04-30 08:09 -5.36039 126.09840 35879 ft 447 kts 91°
2026-04-30 08:09 -5.36195 126.12966 36048 ft 446 kts 91°
2026-04-30 08:09 -5.36351 126.16116 36189 ft 446 kts 91°
2026-04-30 08:09 -5.36502 126.19215 36333 ft 446 kts 92°
2026-04-30 08:10 -5.36655 126.22325 36486 ft 446 kts 92°
2026-04-30 08:10 -5.36807 126.25435 36622 ft 446 kts 92°
2026-04-30 08:10 -5.36963 126.28538 36793 ft 445 kts 91°
2026-04-30 08:11 -5.37275 126.34791 36880 ft 445 kts 92°
2026-04-30 08:11 -5.37571 126.41030 36880 ft 445 kts 92°
2026-04-30 08:12 -5.37869 126.47268 36874 ft 445 kts 92°
2026-04-30 08:12 -5.38173 126.53464 36875 ft 444 kts 92°
2026-04-30 08:13 -5.38480 126.59697 36882 ft 444 kts 91°
2026-04-30 08:13 -5.38782 126.65985 36883 ft 444 kts 91°
2026-04-30 08:14 -5.39080 126.72170 36886 ft 444 kts 92°
2026-04-30 08:14 -5.39378 126.78397 36887 ft 444 kts 91°
2026-04-30 08:15 -5.39675 126.84583 36884 ft 443 kts 91°
2026-04-30 08:15 -5.39971 126.90801 36884 ft 443 kts 91°
2026-04-30 08:16 -5.40271 126.97024 36885 ft 443 kts 91°
2026-04-30 08:16 -5.40565 127.03233 36887 ft 443 kts 91°
2026-04-30 08:17 -5.40861 127.09453 36888 ft 443 kts 91°
2026-04-30 08:17 -5.41155 127.15664 36886 ft 442 kts 91°
2026-04-30 08:18 -5.41401 127.20828 36885 ft 442 kts 91°
2026-04-30 08:18 -5.41695 127.27030 36880 ft 442 kts 91°
2026-04-30 08:19 -5.41988 127.33248 36878 ft 442 kts 91°
2026-04-30 08:19 -5.42279 127.39406 36876 ft 443 kts 91°
2026-04-30 08:20 -5.42574 127.45630 36873 ft 443 kts 91°
2026-04-30 08:20 -5.42865 127.51789 36875 ft 442 kts 92°
2026-04-30 08:21 -5.43163 127.57997 36876 ft 442 kts 91°
2026-04-30 08:21 -5.43451 127.64166 36871 ft 442 kts 91°
2026-04-30 08:22 -5.43734 127.70379 36870 ft 443 kts 91°
2026-04-30 08:22 -5.44023 127.76581 36874 ft 442 kts 91°
2026-04-30 08:23 -5.44311 127.82750 36878 ft 442 kts 91°
2026-04-30 08:23 -5.44596 127.88938 36877 ft 442 kts 91°
2026-04-30 08:24 -5.44879 127.95106 36880 ft 441 kts 91°
2026-04-30 08:24 -5.45165 128.01297 36891 ft 441 kts 91°
2026-04-30 08:25 -5.45446 128.07433 36892 ft 440 kts 91°
2026-04-30 08:25 -5.45733 128.13640 36890 ft 439 kts 92°
2026-04-30 08:26 -5.46014 128.19812 36886 ft 439 kts 92°
2026-04-30 08:26 -5.46296 128.25929 36885 ft 439 kts 92°
2026-04-30 08:27 -5.46585 128.32079 36887 ft 439 kts 92°
2026-04-30 08:27 -5.46866 128.38283 36885 ft 439 kts 92°
2026-04-30 08:28 -5.47144 128.44447 36887 ft 439 kts 92°
2026-04-30 08:28 -5.47423 128.50604 36886 ft 439 kts 92°
2026-04-30 08:29 -5.47696 128.56771 36886 ft 439 kts 91°
2026-04-30 08:29 -5.47929 128.61935 36884 ft 439 kts 92°
2026-04-30 08:30 -5.48209 128.68069 36879 ft 439 kts 92°
2026-04-30 08:30 -5.48480 128.74255 36877 ft 440 kts 91°
2026-04-30 08:31 -5.48755 128.80435 36878 ft 440 kts 92°
2026-04-30 08:31 -5.49036 128.86613 36879 ft 440 kts 92°
2026-04-30 08:32 -5.49314 128.92792 36881 ft 440 kts 92°
2026-04-30 08:32 -5.49591 128.98984 36882 ft 441 kts 92°
2026-04-30 08:33 -5.49873 129.05130 36883 ft 441 kts 94°
2026-04-30 08:33 -5.51547 129.11103 36133 ft 459 kts 123°
2026-04-30 08:33 -5.53881 129.13430 34703 ft 488 kts 147°
2026-04-30 08:34 -5.56918 129.15013 34139 ft 483 kts 152°
2026-04-30 08:34 -5.59921 129.16490 33936 ft 467 kts 152°
2026-04-30 08:34 -5.62807 129.17905 33694 ft 458 kts 152°
2026-04-30 08:34 -5.65648 129.19298 33467 ft 455 kts 152°
2026-04-30 08:35 -5.68494 129.20693 33260 ft 453 kts 152°
2026-04-30 08:35 -5.71360 129.22098 33092 ft 453 kts 152°
2026-04-30 08:35 -5.74176 129.23478 32953 ft 453 kts 152°
2026-04-30 08:35 -5.77051 129.24887 32842 ft 453 kts 152°
2026-04-30 08:36 -5.79878 129.26273 32763 ft 453 kts 152°
2026-04-30 08:36 -5.85589 129.29074 32682 ft 453 kts 152°
2026-04-30 08:37 -5.91260 129.31856 32678 ft 454 kts 152°
2026-04-30 08:37 -5.96978 129.34663 32775 ft 454 kts 152°
2026-04-30 08:38 -6.02699 129.37472 32957 ft 455 kts 152°
2026-04-30 08:38 -6.05572 129.38883 33080 ft 455 kts 152°
2026-04-30 08:38 -6.08413 129.40279 33223 ft 455 kts 152°
2026-04-30 08:38 -6.11257 129.41676 33385 ft 455 kts 152°
2026-04-30 08:39 -6.14093 129.43070 33565 ft 455 kts 152°
2026-04-30 08:39 -6.16980 129.44488 33771 ft 454 kts 152°
2026-04-30 08:39 -6.19821 129.45882 33973 ft 455 kts 152°
2026-04-30 08:39 -6.22657 129.47274 34174 ft 455 kts 152°
2026-04-30 08:40 -6.25510 129.48674 34401 ft 454 kts 152°
2026-04-30 08:40 -6.28340 129.50062 34631 ft 453 kts 152°
2026-04-30 08:40 -6.30297 129.51021 34800 ft 452 kts 152°
2026-04-30 08:40 -6.33119 129.52404 35059 ft 450 kts 152°
2026-04-30 08:41 -6.35933 129.53783 35327 ft 448 kts 153°
2026-04-30 08:41 -6.38766 129.55170 35613 ft 446 kts 152°
2026-04-30 08:41 -6.41535 129.56526 35906 ft 443 kts 153°
2026-04-30 08:41 -6.44299 129.57879 36209 ft 440 kts 153°
2026-04-30 08:42 -6.47081 129.59239 36537 ft 436 kts 153°
2026-04-30 08:42 -6.49795 129.60565 36871 ft 431 kts 153°
2026-04-30 08:42 -6.52506 129.61895 37226 ft 426 kts 153°
2026-04-30 08:42 -6.55142 129.63200 37581 ft 421 kts 152°
2026-04-30 08:43 -6.57743 129.64500 37945 ft 415 kts 152°
2026-04-30 08:43 -6.60353 129.65816 38328 ft 408 kts 152°
2026-04-30 08:43 -6.62866 129.67096 38676 ft 401 kts 152°
2026-04-30 08:43 -6.65356 129.68379 38993 ft 393 kts 152°
2026-04-30 08:44 -6.67759 129.69632 39300 ft 384 kts 152°
2026-04-30 08:44 -6.70101 129.70869 39576 ft 377 kts 151°
2026-04-30 08:44 -6.72407 129.72102 39606 ft 377 kts 151°
2026-04-30 08:44 -6.74767 129.73382 39427 ft 384 kts 151°
2026-04-30 08:45 -6.77135 129.74687 39228 ft 391 kts 150°
2026-04-30 08:45 -6.81868 129.77364 39506 ft 382 kts 149°
2026-04-30 08:45 -6.84158 129.78687 39705 ft 377 kts 149°
2026-04-30 08:46 -6.86455 129.80031 39649 ft 380 kts 149°
2026-04-30 08:46 -6.88758 129.81396 39395 ft 388 kts 149°
2026-04-30 08:46 -6.91096 129.82797 39354 ft 389 kts 148°
2026-04-30 08:46 -6.93420 129.84205 39584 ft 382 kts 148°
2026-04-30 08:47 -6.95678 129.85589 39800 ft 376 kts 148°
2026-04-30 08:47 -7.00191 129.88401 39558 ft 386 kts 148°
2026-04-30 08:47 -7.02519 129.89877 39350 ft 393 kts 147°
2026-04-30 08:48 -7.04803 129.91343 39504 ft 388 kts 147°
2026-04-30 08:48 -7.07051 129.92802 39766 ft 380 kts 147°
2026-04-30 08:48 -7.09286 129.94269 39820 ft 380 kts 147°
2026-04-30 08:48 -7.11516 129.95750 39575 ft 388 kts 146°
2026-04-30 08:49 -7.13797 129.97282 39363 ft 395 kts 146°
2026-04-30 08:49 -7.16084 129.98837 39510 ft 389 kts 145°
2026-04-30 08:49 -7.18286 130.00350 39855 ft 379 kts 145°
2026-04-30 08:49 -7.20471 130.01869 40023 ft 375 kts 145°
2026-04-30 08:50 -7.22627 130.03384 39824 ft 383 kts 144°
2026-04-30 08:50 -7.24830 130.04952 39513 ft 393 kts 144°
2026-04-30 08:50 -7.27056 130.06556 39517 ft 392 kts 144°
2026-04-30 08:50 -7.29264 130.08168 39840 ft 381 kts 143°
2026-04-30 08:51 -7.31377 130.09731 40121 ft 374 kts 143°
2026-04-30 08:51 -7.35626 130.12937 39706 ft 389 kts 142°
2026-04-30 08:51 -7.37794 130.14605 39535 ft 394 kts 142°
2026-04-30 08:52 -7.39247 130.15735 39623 ft 390 kts 142°
2026-04-30 08:52 -7.41361 130.17396 39929 ft 381 kts 142°
2026-04-30 08:52 -7.44131 130.19607 40065 ft 378 kts 141°
2026-04-30 08:53 -7.47599 130.22427 39773 ft 388 kts 140°
2026-04-30 08:53 -7.49719 130.24180 39649 ft 392 kts 140°
2026-04-30 08:53 -7.51824 130.25943 39723 ft 390 kts 140°
2026-04-30 08:53 -7.53904 130.27708 39951 ft 383 kts 139°
2026-04-30 08:54 -7.55919 130.29442 40079 ft 380 kts 139°
2026-04-30 08:54 -7.57960 130.31216 39939 ft 385 kts 139°
2026-04-30 08:54 -7.60004 130.33014 39668 ft 394 kts 138°
2026-04-30 08:55 -7.64119 130.36701 39847 ft 388 kts 137°
2026-04-30 08:55 -7.66141 130.38545 40071 ft 382 kts 137°
2026-04-30 08:55 -7.68097 130.40352 40048 ft 384 kts 137°
2026-04-30 08:55 -7.70098 130.42221 39839 ft 391 kts 137°
2026-04-30 08:56 -7.72090 130.44104 39806 ft 392 kts 136°
2026-04-30 08:56 -7.76030 130.47894 39987 ft 387 kts 135°
2026-04-30 08:57 -7.79908 130.51703 40049 ft 386 kts 135°
2026-04-30 08:57 -7.83699 130.55502 40096 ft 385 kts 135°
2026-04-30 08:57 -7.85597 130.57434 39973 ft 389 kts 134°
2026-04-30 08:58 -7.87522 130.59412 39968 ft 389 kts 134°
2026-04-30 08:58 -7.89396 130.61358 40081 ft 386 kts 134°
2026-04-30 08:58 -7.91247 130.63298 40203 ft 382 kts 134°
2026-04-30 08:59 -7.94941 130.67229 40134 ft 386 kts 133°
2026-04-30 08:59 -7.98612 130.71215 39981 ft 391 kts 132°
2026-04-30 09:00 -8.02295 130.75292 40071 ft 388 kts 132°
2026-04-30 09:00 -8.04089 130.77307 40191 ft 385 kts 131°
2026-04-30 09:00 -8.05867 130.79321 40233 ft 384 kts 131°
2026-04-30 09:00 -8.07638 130.81348 40118 ft 388 kts 131°
2026-04-30 09:01 -8.09432 130.83418 39954 ft 394 kts 131°
2026-04-30 09:01 -8.13035 130.87633 40019 ft 391 kts 130°
2026-04-30 09:01 -8.14812 130.89738 40210 ft 386 kts 130°
2026-04-30 09:02 -8.18251 130.93868 40243 ft 386 kts 130°
2026-04-30 09:02 -8.19979 130.95963 40129 ft 390 kts 129°
2026-04-30 09:02 -8.21736 130.98104 40034 ft 393 kts 129°
2026-04-30 09:03 -8.23474 131.00232 40144 ft 389 kts 129°
2026-04-30 09:03 -8.25191 131.02344 40374 ft 382 kts 129°
2026-04-30 09:03 -8.28567 131.06526 40198 ft 389 kts 129°
2026-04-30 09:04 -8.32007 131.10830 40082 ft 392 kts 128°
2026-04-30 09:04 -8.33149 131.12267 40190 ft 388 kts 128°
2026-04-30 09:04 -8.34826 131.14385 40378 ft 383 kts 128°
2026-04-30 09:05 -8.38160 131.18621 40162 ft 391 kts 128°
2026-04-30 09:05 -8.39880 131.20819 39996 ft 396 kts 128°
2026-04-30 09:05 -8.41572 131.22989 40086 ft 392 kts 128°
2026-04-30 09:06 -8.43239 131.25137 40417 ft 382 kts 128°
2026-04-30 09:06 -8.44883 131.27263 40537 ft 379 kts 128°
2026-04-30 09:06 -8.46523 131.29391 40275 ft 388 kts 128°
2026-04-30 09:06 -8.48203 131.31579 40042 ft 395 kts 127°
2026-04-30 09:07 -8.49885 131.33778 40196 ft 389 kts 127°
2026-04-30 09:07 -8.51536 131.35944 40512 ft 380 kts 127°
2026-04-30 09:07 -8.54780 131.40224 40302 ft 388 kts 127°
2026-04-30 09:08 -8.56425 131.42407 40116 ft 393 kts 127°
2026-04-30 09:08 -8.58095 131.44632 40213 ft 389 kts 127°
2026-04-30 09:08 -8.59733 131.46821 40406 ft 383 kts 127°
2026-04-30 09:08 -8.61332 131.48964 40488 ft 382 kts 127°
2026-04-30 09:09 -8.62938 131.51126 40362 ft 386 kts 127°
2026-04-30 09:09 -8.64577 131.53337 40265 ft 389 kts 126°
2026-04-30 09:09 -8.67822 131.57740 40386 ft 385 kts 126°
2026-04-30 09:10 -8.69426 131.59926 40535 ft 381 kts 126°
2026-04-30 09:10 -8.70999 131.62075 40553 ft 380 kts 126°
2026-04-30 09:10 -8.72575 131.64237 40404 ft 385 kts 126°
2026-04-30 09:10 -8.74196 131.66466 40238 ft 390 kts 126°
2026-04-30 09:11 -8.77391 131.70882 40481 ft 382 kts 126°
2026-04-30 09:11 -8.80549 131.75275 40377 ft 387 kts 126°
2026-04-30 09:12 -8.83726 131.79727 40395 ft 385 kts 126°
2026-04-30 09:12 -8.86865 131.84162 40516 ft 382 kts 125°
2026-04-30 09:13 -8.89967 131.88582 40367 ft 387 kts 125°
2026-04-30 09:13 -8.93081 131.93057 40458 ft 384 kts 125°
2026-04-30 09:14 -8.96155 131.97510 40426 ft 386 kts 124°
2026-04-30 09:14 -8.98742 132.01282 40262 ft 391 kts 124°
2026-04-30 09:15 -9.01802 132.05790 40387 ft 388 kts 124°
2026-04-30 09:15 -9.04848 132.10329 40434 ft 386 kts 124°
2026-04-30 09:16 -9.07859 132.14878 40245 ft 393 kts 123°
2026-04-30 09:16 -9.10851 132.19533 40367 ft 389 kts 122°
2026-04-30 09:17 -9.13733 132.24168 40376 ft 390 kts 121°
2026-04-30 09:17 -9.16570 132.28894 40356 ft 390 kts 120°
2026-04-30 09:18 -9.17946 132.31245 40480 ft 387 kts 120°
2026-04-30 09:18 -9.19303 132.33604 40480 ft 388 kts 119°
2026-04-30 09:18 -9.20665 132.36015 40362 ft 391 kts 118°
2026-04-30 09:18 -9.22003 132.38428 40239 ft 395 kts 118°
2026-04-30 09:19 -9.24654 132.43348 40490 ft 387 kts 117°
2026-04-30 09:19 -9.25906 132.45740 40633 ft 383 kts 117°
2026-04-30 09:19 -9.27137 132.48141 40595 ft 385 kts 116°
2026-04-30 09:20 -9.28376 132.50610 40363 ft 392 kts 116°
2026-04-30 09:20 -9.29601 132.53102 40260 ft 395 kts 115°
2026-04-30 09:20 -9.31982 132.58106 40525 ft 387 kts 114°
2026-04-30 09:21 -9.33113 132.60562 40633 ft 384 kts 114°
2026-04-30 09:21 -9.34226 132.63035 40603 ft 386 kts 114°
2026-04-30 09:21 -9.35336 132.65563 40398 ft 392 kts 113°
2026-04-30 09:21 -9.36429 132.68117 40280 ft 396 kts 112°
2026-04-30 09:22 -9.38525 132.73203 40566 ft 387 kts 111°
2026-04-30 09:22 -9.39535 132.75750 40674 ft 384 kts 111°
2026-04-30 09:22 -9.40526 132.78316 40574 ft 387 kts 111°
2026-04-30 09:23 -9.41491 132.80884 40352 ft 394 kts 110°
2026-04-30 09:23 -9.42448 132.83507 40256 ft 397 kts 109°
2026-04-30 09:23 -9.43387 132.86153 40464 ft 390 kts 109°
2026-04-30 09:23 -9.44268 132.88711 40708 ft 383 kts 108°
2026-04-30 09:24 -9.46001 132.93908 40385 ft 394 kts 108°
2026-04-30 09:24 -9.46902 132.96552 40188 ft 400 kts 109°
2026-04-30 09:24 -9.47866 132.99192 40313 ft 396 kts 111°
2026-04-30 09:25 -9.48888 133.01747 40652 ft 386 kts 113°
2026-04-30 09:25 -9.49968 133.04211 40796 ft 383 kts 115°
2026-04-30 09:25 -9.51144 133.06660 40602 ft 390 kts 117°
2026-04-30 09:25 -9.52459 133.09142 40293 ft 399 kts 120°
2026-04-30 09:26 -9.55390 133.13920 40605 ft 388 kts 125°
2026-04-30 09:26 -9.56937 133.16122 40865 ft 381 kts 127°
2026-04-30 09:26 -9.58024 133.17563 40863 ft 382 kts 129°
2026-04-30 09:27 -9.60330 133.20377 40434 ft 395 kts 132°
2026-04-30 09:27 -9.61558 133.21754 40250 ft 400 kts 134°
2026-04-30 09:27 -9.65514 133.25722 40510 ft 391 kts 139°
2026-04-30 09:28 -9.67570 133.27543 40700 ft 386 kts 141°
2026-04-30 09:28 -9.69663 133.29252 40654 ft 388 kts 144°
2026-04-30 09:28 -9.71886 133.30914 40460 ft 394 kts 146°
2026-04-30 09:28 -9.74162 133.32463 40438 ft 393 kts 148°
2026-04-30 09:29 -9.76481 133.33897 40618 ft 388 kts 152°
2026-04-30 09:29 -9.78821 133.35207 40716 ft 385 kts 154°
2026-04-30 09:29 -9.83754 133.37551 40456 ft 392 kts 159°
2026-04-30 09:30 -9.88920 133.39458 40515 ft 389 kts 165°
2026-04-30 09:30 -9.91491 133.40214 40705 ft 383 kts 167°
2026-04-30 09:30 -9.94120 133.40861 40730 ft 383 kts 169°
2026-04-30 09:31 -9.96753 133.41383 40537 ft 389 kts 173°
2026-04-30 09:31 -9.99446 133.41790 40361 ft 393 kts 175°
2026-04-30 09:31 -10.04836 133.42229 40660 ft 382 kts 181°
2026-04-30 09:32 -10.07480 133.42267 40770 ft 379 kts 182°
2026-04-30 09:32 -10.10168 133.42184 40646 ft 383 kts 185°
2026-04-30 09:32 -10.12837 133.41974 40476 ft 387 kts 188°
2026-04-30 09:32 -10.15547 133.41632 40425 ft 387 kts 191°
2026-04-30 09:33 -10.18189 133.41174 40529 ft 384 kts 193°
2026-04-30 09:33 -10.20801 133.40596 40621 ft 381 kts 196°
2026-04-30 09:33 -10.25931 133.39077 40501 ft 384 kts 201°
2026-04-30 09:34 -10.30927 133.37062 40512 ft 382 kts 207°
2026-04-30 09:34 -10.35651 133.34605 40645 ft 377 kts 212°
2026-04-30 09:35 -10.40110 133.31703 40541 ft 379 kts 218°
2026-04-30 09:35 -10.44239 133.28395 40588 ft 376 kts 224°
2026-04-30 09:36 -10.48004 133.24726 40586 ft 376 kts 230°
2026-04-30 09:36 -10.51425 133.20683 40474 ft 378 kts 235°
2026-04-30 09:37 -10.54447 133.16326 40627 ft 372 kts 240°
2026-04-30 09:37 -10.56999 133.11773 40608 ft 372 kts 246°
2026-04-30 09:38 -10.59128 133.06937 40545 ft 372 kts 252°
2026-04-30 09:38 -10.60768 133.01961 40674 ft 367 kts 257°